M I D A S
Marine Information and Data Acquisition System
Tripno 1722 of the Zeeleeuw from 2009-02-13 09:01:58 to 2009-02-13 12:51:45
Back to CruiseResearch ActivitiesStationsMapUnderway DataData graphs

EquipmentUnitsComments
TimeDGPSUTC
LatitudeDGPSDM.mWGS84
LongitudeDGPSDM.mWGS84
SpeedMeteo Stationm/sRelative wind speed
DirectionMeteo StationdegRelative wind direction
TemperatureMeteo Stationdeg CelciusAir temperature
PressureMeteo StationPaAtmospheric pressure
HumidityMeteo Station%Relative humidity
Missing or incorrect values are displayed as -999
Metereological data collected by the RV Zeeleeuw from 2009-02-13 09:01:47 to 2009-02-13 13:00:09
Time Latitude Longitude Speed Direction Temperature Pressure Humidity
2009-02-13 09:02 51°13.675 2°55.919 1.3 11 1.3 101930 88
2009-02-13 09:03 51°13.699 2°55.843 2.2 27 1.4 101940 88
2009-02-13 09:04 51°13.706 2°55.752 2.7 40 1.4 101930 89
2009-02-13 09:05 51°13.712 2°55.736 1.5 35 1.4 101940 90
2009-02-13 09:06 51°13.75 2°55.724 1.1 261 1.4 101940 90
2009-02-13 09:07 51°13.827 2°55.643 1.5 328 1.5 101940 90
2009-02-13 09:08 51°13.948 2°55.548 3 328 1.5 101940 89
2009-02-13 09:09 51°14.079 2°55.453 2.8 323 1.5 101940 90
2009-02-13 09:10 51°14.207 2°55.336 3.1 286 1.5 101940 92
2009-02-13 09:11 51°14.315 2°55.165 4.5 320 1.5 101950 90
2009-02-13 09:12 51°14.416 2°54.969 4.6 282 1.6 101940 92
2009-02-13 09:13 51°14.556 2°54.832 3.1 280 1.6 101940 91
2009-02-13 09:14 51°14.721 2°54.762 3.6 19 1.6 101940 92
2009-02-13 09:15 51°14.89 2°54.676 3.8 284 1.6 101940 92
2009-02-13 09:16 51°15.059 2°54.592 3.6 25 1.6 101950 92
2009-02-13 09:17 51°15.227 2°54.509 3.9 284 1.6 101950 92
2009-02-13 09:18 51°15.399 2°54.451 2.9 19 1.6 101950 91
2009-02-13 09:19 51°15.573 2°54.452 3.4 21 1.6 101960 92
2009-02-13 09:20 51°15.739 2°54.45 2.2 25 1.6 101950 92
2009-02-13 09:21 51°15.864 2°54.453 1.4 280 1.6 101960 92
2009-02-13 09:22 51°15.969 2°54.481 1.2 286 1.7 101960 92
2009-02-13 09:23 51°16.072 2°54.51 0.9 286 1.7 101950 92
2009-02-13 09:24 51°16.179 2°54.541 0.9 283 1.7 101960 92
2009-02-13 09:25 51°16.278 2°54.562 1.8 254 1.7 101960 93
2009-02-13 09:26 51°16.323 2°54.48 4.2 20 1.7 101960 92
2009-02-13 09:27 51°16.296 2°54.361 5.3 329 1.7 101950 93
2009-02-13 09:28 51°16.27 2°54.306 4.1 320 1.7 101960 93
2009-02-13 09:29 51°16.26 2°54.28 4.1 26 1.7 101960 93
2009-02-13 09:30 51°16.252 2°54.256 3.4 280 1.7 101960 93
2009-02-13 09:31 51°16.245 2°54.231 3.8 19 1.7 101970 93
2009-02-13 09:32 51°16.238 2°54.206 4.1 26 1.7 101960 92
2009-02-13 09:33 51°16.23 2°54.181 3.4 285 1.7 101960 93
2009-02-13 09:34 51°16.221 2°54.156 3.6 249 1.7 101960 92
2009-02-13 09:35 51°16.212 2°54.131 4.5 282 1.7 101960 93
2009-02-13 09:36 51°16.203 2°54.104 3.2 255 1.7 101960 92
2009-02-13 09:37 51°16.183 2°54.096 3.8 30 1.7 101970 94
2009-02-13 09:38 51°16.15 2°54.099 3.3 283 1.7 101970 94
2009-02-13 09:39 51°16.169 2°54.087 0.4 14 1.7 101960 95
2009-02-13 09:40 51°16.192 2°54.136 0.8 81 1.7 101970 93
2009-02-13 09:41 51°16.223 2°54.183 1.6 25 1.8 101970 94
2009-02-13 09:42 51°16.24 2°54.236 1.6 36 1.8 101970 94
2009-02-13 09:43 51°16.255 2°54.271 2.6 37 1.7 101980 94
2009-02-13 09:44 51°16.259 2°54.297 2.1 39 1.7 101970 94
2009-02-13 09:45 51°16.258 2°54.309 2.9 37 1.7 101970 94
2009-02-13 09:46 51°16.255 2°54.311 2.7 36 1.7 101970 94
2009-02-13 09:47 51°16.249 2°54.306 2.6 34 1.7 101970 94
2009-02-13 09:48 51°16.242 2°54.295 2.9 32 1.7 101970 94
2009-02-13 09:49 51°16.233 2°54.282 2.5 33 1.7 101970 94
2009-02-13 09:50 51°16.223 2°54.266 3.2 30 1.7 101970 94
2009-02-13 09:51 51°16.212 2°54.248 3.3 28 1.7 101970 94
2009-02-13 09:52 51°16.201 2°54.228 2.3 26 1.7 101970 95
2009-02-13 09:53 51°16.189 2°54.207 2.3 25 1.7 101970 93
2009-02-13 09:54 51°16.176 2°54.184 2.9 26 1.7 101980 94
2009-02-13 09:55 51°16.164 2°54.161 3 24 1.8 101980 94
2009-02-13 09:56 51°16.15 2°54.147 2.2 31 1.7 101980 94
2009-02-13 09:57 51°16.153 2°54.166 1.2 41 1.8 101990 94
2009-02-13 09:58 51°16.187 2°54.212 0.4 37 1.7 101990 94
2009-02-13 09:59 51°16.228 2°54.268 0.8 31 1.8 101990 94
2009-02-13 10:00 51°16.258 2°54.295 1.1 24 1.8 101990 94
2009-02-13 10:01 51°16.278 2°54.292 1.4 25 1.9 101990 95
2009-02-13 10:02 51°16.29 2°54.275 2 25 1.9 102000 94
2009-02-13 10:03 51°16.298 2°54.251 2.5 23 1.9 102000 94
2009-02-13 10:04 51°16.301 2°54.222 2.3 24 1.8 102000 94
2009-02-13 10:05 51°16.301 2°54.192 3.5 25 1.8 102000 93
2009-02-13 10:06 51°16.298 2°54.159 3.4 270 1.8 102000 94
2009-02-13 10:07 51°16.293 2°54.125 2.3 266 1.8 101990 95
2009-02-13 10:08 51°16.286 2°54.09 1.6 263 1.9 101990 95
2009-02-13 10:09 51°16.3 2°54.053 1.5 23 1.8 102000 94
2009-02-13 10:10 51°16.315 2°54.075 2.4 24 1.8 102000 95
2009-02-13 10:11 51°16.295 2°54.15 3 8 1.9 101990 94
2009-02-13 10:12 51°16.279 2°54.253 3.2 7 1.9 101990 95
2009-02-13 10:13 51°16.251 2°54.301 3 15 1.9 101990 94
2009-02-13 10:14 51°16.222 2°54.318 3.5 11 1.9 101990 94
2009-02-13 10:15 51°16.196 2°54.322 2.9 11 1.8 101990 95
2009-02-13 10:16 51°16.173 2°54.318 3.3 9 1.9 101990 95
2009-02-13 10:17 51°16.152 2°54.31 2.6 19 1.9 101990 94
2009-02-13 10:18 51°16.134 2°54.297 3 17 1.9 101990 95
2009-02-13 10:19 51°16.118 2°54.281 3.2 15 1.9 101990 94
2009-02-13 10:20 51°16.103 2°54.263 3 16 1.9 101990 96
2009-02-13 10:21 51°16.088 2°54.243 3.1 26 1.9 101990 94
2009-02-13 10:22 51°16.074 2°54.223 2.9 26 1.9 101990 95
2009-02-13 10:23 51°16.065 2°54.234 1.9 20 1.9 101980 95
2009-02-13 10:24 51°16.097 2°54.241 1.2 24 1.9 101990 94
2009-02-13 10:25 51°16.152 2°54.26 0.5 256 2 101990 94
2009-02-13 10:26 51°16.195 2°54.31 0.3 1 2.1 101990 95
2009-02-13 10:27 51°16.215 2°54.369 1.9 23 2.1 101990 95
2009-02-13 10:28 51°16.212 2°54.398 2.3 37 2.1 101990 93
2009-02-13 10:29 51°16.203 2°54.408 2.7 33 2.1 101990 95
2009-02-13 10:30 51°16.194 2°54.408 2.2 32 2 101990 94
2009-02-13 10:31 51°16.183 2°54.402 2.6 31 2 102000 94
2009-02-13 10:32 51°16.171 2°54.39 2.1 30 2 102000 94
2009-02-13 10:33 51°16.159 2°54.374 2.4 32 2 102000 93
2009-02-13 10:34 51°16.146 2°54.355 2.8 31 2 102000 94
2009-02-13 10:35 51°16.134 2°54.334 3 29 2 102000 95
2009-02-13 10:36 51°16.121 2°54.311 2.8 30 2 102000 94
2009-02-13 10:37 51°16.109 2°54.294 2 31 1.9 101990 94
2009-02-13 10:38 51°16.11 2°54.302 1.1 25 2 102000 94
2009-02-13 10:39 51°16.152 2°54.303 1.1 254 2 102000 94
2009-02-13 10:40 51°16.209 2°54.308 2.2 280 2 102000 94
2009-02-13 10:41 51°16.254 2°54.284 1.4 264 2.1 102000 95
2009-02-13 10:42 51°16.276 2°54.258 1.9 282 2.1 102000 94
2009-02-13 10:43 51°16.286 2°54.225 2.3 261 2.1 102010 94
2009-02-13 10:44 51°16.286 2°54.189 2.9 257 2.1 102010 94
2009-02-13 10:45 51°16.282 2°54.151 2.7 252 2.1 102000 95
2009-02-13 10:46 51°16.28 2°54.112 2.4 262 2.1 102010 93
2009-02-13 10:47 51°16.283 2°54.08 2.4 76 2.1 102010 94
2009-02-13 10:48 51°16.286 2°54.06 1.6 20 2.1 102000 95
2009-02-13 10:49 51°16.287 2°54.054 1.6 26 2.1 102010 94
2009-02-13 10:50 51°16.284 2°54.057 1.8 24 2.1 102000 94
2009-02-13 10:51 51°16.28 2°54.067 1.7 43 2.1 102000 94
2009-02-13 10:52 51°16.277 2°54.081 1.5 74 2 102010 94
2009-02-13 10:53 51°16.277 2°54.102 1.2 78 2 102000 94
2009-02-13 10:54 51°16.277 2°54.13 1.2 38 2 102000 94
2009-02-13 10:55 51°16.275 2°54.162 1.3 35 2.1 102010 94
2009-02-13 10:56 51°16.274 2°54.197 1.4 37 2.1 102000 94
2009-02-13 10:57 51°16.274 2°54.233 1.4 43 2.1 102010 94
2009-02-13 10:58 51°16.275 2°54.269 1.2 42 2.1 102010 94
2009-02-13 10:59 51°16.277 2°54.305 1 31 2.1 102010 94
2009-02-13 11:00 51°16.278 2°54.343 0.9 36 2.1 102010 94
2009-02-13 11:01 51°16.278 2°54.382 1 37 2.1 102010 94
2009-02-13 11:02 51°16.281 2°54.418 0.9 33 2.1 102010 94
2009-02-13 11:03 51°16.289 2°54.441 1.3 78 2.1 102010 94
2009-02-13 11:04 51°16.298 2°54.451 1.3 82 2.2 102010 94
2009-02-13 11:05 51°16.307 2°54.455 1.2 78 2.2 102010 94
2009-02-13 11:06 51°16.315 2°54.458 1.1 280 2.2 102010 94
2009-02-13 11:07 51°16.318 2°54.456 1.5 74 2.2 102010 94
2009-02-13 11:08 51°16.319 2°54.45 1.3 77 2.1 102010 94
2009-02-13 11:09 51°16.318 2°54.441 1.5 79 2.1 102010 94
2009-02-13 11:10 51°16.314 2°54.43 1.3 78 2.1 102010 94
2009-02-13 11:11 51°16.309 2°54.419 1.5 74 2.1 102000 94
2009-02-13 11:12 51°16.302 2°54.407 1.8 78 2.1 102010 94
2009-02-13 11:13 51°16.295 2°54.395 1.7 73 2.1 102010 94
2009-02-13 11:14 51°16.288 2°54.382 1.3 73 2.1 102010 95
2009-02-13 11:15 51°16.28 2°54.369 1.6 82 2.1 102000 94
2009-02-13 11:16 51°16.272 2°54.354 1.5 79 2.2 102010 95
2009-02-13 11:17 51°16.263 2°54.339 1.3 77 2.2 102000 94
2009-02-13 11:18 51°16.254 2°54.326 1.2 76 2.3 102010 94
2009-02-13 11:19 51°16.245 2°54.311 0.8 81 2.4 102000 94
2009-02-13 11:20 51°16.236 2°54.296 0.9 73 2.5 102000 95
2009-02-13 11:21 51°16.228 2°54.283 1.5 73 2.5 102000 94
2009-02-13 11:22 51°16.224 2°54.27 1.7 77 2.4 102000 94
2009-02-13 11:23 51°16.225 2°54.259 1.6 74 2.4 102000 94
2009-02-13 11:24 51°16.231 2°54.253 1.2 78 2.3 102000 94
2009-02-13 11:25 51°16.238 2°54.257 1 78 2.3 102010 94
2009-02-13 11:26 51°16.24 2°54.271 1.3 44 2.4 102000 94
2009-02-13 11:27 51°16.234 2°54.291 1.3 32 2.4 102000 93
2009-02-13 11:28 51°16.224 2°54.312 1.2 37 2.3 102000 94
2009-02-13 11:29 51°16.218 2°54.33 1 41 2.3 101990 94
2009-02-13 11:30 51°16.218 2°54.337 1.4 82 2.3 101990 94
2009-02-13 11:31 51°16.221 2°54.335 1.4 73 2.3 102000 95
2009-02-13 11:32 51°16.226 2°54.329 1.3 285 2.3 101990 94
2009-02-13 11:33 51°16.231 2°54.321 1 280 2.3 102000 94
2009-02-13 11:34 51°16.238 2°54.312 1.2 78 2.3 101990 94
2009-02-13 11:35 51°16.245 2°54.3 1.3 81 2.3 101990 94
2009-02-13 11:36 51°16.252 2°54.288 1.1 283 2.3 101990 95
2009-02-13 11:37 51°16.258 2°54.273 1.4 82 2.3 101990 94
2009-02-13 11:38 51°16.263 2°54.258 0.9 279 2.3 101990 94
2009-02-13 11:39 51°16.268 2°54.241 1.2 284 2.3 101990 94
2009-02-13 11:40 51°16.272 2°54.222 0.9 279 2.3 101990 94
2009-02-13 11:41 51°16.276 2°54.206 1.2 282 2.3 101990 94
2009-02-13 11:42 51°16.279 2°54.194 1.1 77 2.4 101980 94
2009-02-13 11:43 51°16.28 2°54.186 0.9 80 2.3 101990 94
2009-02-13 11:44 51°16.279 2°54.184 1.4 73 2.3 101980 93
2009-02-13 11:45 51°16.276 2°54.184 1.2 77 2.4 101990 94
2009-02-13 11:46 51°16.269 2°54.187 1.2 37 2.3 101980 94
2009-02-13 11:47 51°16.26 2°54.19 1.1 26 2.3 101980 93
2009-02-13 11:48 51°16.251 2°54.195 1.5 36 2.3 101980 94
2009-02-13 11:49 51°16.242 2°54.202 0.8 39 2.3 101990 94
2009-02-13 11:50 51°16.236 2°54.208 1.3 38 2.3 101980 94
2009-02-13 11:51 51°16.231 2°54.215 1 74 2.3 101980 94
2009-02-13 11:52 51°16.227 2°54.221 1 44 2.3 101990 94
2009-02-13 11:53 51°16.224 2°54.227 1 79 2.3 101990 94
2009-02-13 11:54 51°16.222 2°54.232 1.1 78 2.4 101990 94
2009-02-13 11:55 51°16.22 2°54.238 0.6 78 2.4 101990 94
2009-02-13 11:56 51°16.218 2°54.245 1.2 74 2.5 101990 94
2009-02-13 11:57 51°16.216 2°54.252 0.9 81 2.5 101990 94
2009-02-13 11:58 51°16.214 2°54.26 1.1 78 2.6 101990 94
2009-02-13 11:59 51°16.212 2°54.27 1 80 2.6 102000 94
2009-02-13 12:00 51°16.209 2°54.28 0.9 79 2.6 102000 94
2009-02-13 12:01 51°16.206 2°54.29 0.8 79 2.6 101990 94
2009-02-13 12:02 51°16.204 2°54.3 1.2 77 2.7 102000 94
2009-02-13 12:03 51°16.203 2°54.307 0.9 16 2.6 102000 94
2009-02-13 12:04 51°16.204 2°54.309 1.1 283 2.6 102000 94
2009-02-13 12:05 51°16.207 2°54.309 1 282 2.6 102000 93
2009-02-13 12:06 51°16.211 2°54.307 1.1 282 2.6 102000 93
2009-02-13 12:07 51°16.215 2°54.304 1.6 283 2.6 102000 93
2009-02-13 12:08 51°16.219 2°54.3 2.1 286 2.6 102000 94
2009-02-13 12:09 51°16.224 2°54.298 1.5 282 2.6 102000 94
2009-02-13 12:10 51°16.229 2°54.297 1.3 279 2.5 102000 93
2009-02-13 12:11 51°16.235 2°54.297 1.4 286 2.5 102000 93
2009-02-13 12:12 51°16.24 2°54.298 1.2 283 2.5 102010 93
2009-02-13 12:13 51°16.246 2°54.3 1.2 283 2.5 102000 93
2009-02-13 12:14 51°16.252 2°54.303 1.5 280 2.5 102010 93
2009-02-13 12:15 51°16.257 2°54.305 1.9 285 2.5 102010 93
2009-02-13 12:16 51°16.263 2°54.307 1.6 284 2.5 102000 93
2009-02-13 12:17 51°16.275 2°54.309 1.6 285 2.6 102010 93
2009-02-13 12:18 51°16.305 2°54.351 0.9 279 2.6 102010 94
2009-02-13 12:19 51°16.274 2°54.483 3.3 280 2.6 102010 94
2009-02-13 12:20 51°16.126 2°54.536 5.2 281 2.5 102000 93
2009-02-13 12:21 51°15.953 2°54.516 5.6 284 2.5 101990 93
2009-02-13 12:22 51°15.78 2°54.41 6.8 285 2.5 102000 94
2009-02-13 12:23 51°15.606 2°54.303 6.2 286 2.5 101990 94
2009-02-13 12:24 51°15.43 2°54.213 6.2 280 2.4 101990 93
2009-02-13 12:25 51°15.268 2°54.148 4.3 345 2.4 102000 93
2009-02-13 12:26 51°15.188 2°54.072 4 279 2.4 102000 93
2009-02-13 12:27 51°15.166 2°53.972 4.2 279 2.4 102010 93
2009-02-13 12:28 51°15.186 2°53.887 3.6 286 2.4 102000 93
2009-02-13 12:29 51°15.231 2°53.851 2.9 286 2.4 102000 93
2009-02-13 12:30 51°15.266 2°53.864 2.1 285 2.5 102000 93
2009-02-13 12:31 51°15.285 2°53.899 1 79 2.5 102000 93
2009-02-13 12:32 51°15.291 2°53.936 0.9 81 2.5 102000 94
2009-02-13 12:33 51°15.289 2°53.971 0.8 74 2.5 102000 93
2009-02-13 12:34 51°15.283 2°54.005 0.8 74 2.5 102000 94
2009-02-13 12:35 51°15.276 2°54.037 1.1 78 2.6 102010 94
2009-02-13 12:36 51°15.27 2°54.072 1.2 77 2.6 102000 93
2009-02-13 12:37 51°15.263 2°54.106 0.7 81 2.7 102000 94
2009-02-13 12:38 51°15.259 2°54.14 1.1 76 2.7 102010 94
2009-02-13 12:39 51°15.256 2°54.171 1 75 2.7 102010 95
2009-02-13 12:40 51°15.253 2°54.204 0.5 77 2.7 102010 94
2009-02-13 12:41 51°15.244 2°54.242 1 37 2.7 102010 93
2009-02-13 12:42 51°15.225 2°54.274 1.4 27 2.7 102010 93
2009-02-13 12:43 51°15.195 2°54.295 1.3 14 2.6 102010 93
2009-02-13 12:44 51°15.125 2°54.327 2.9 351 2.6 102010 93
2009-02-13 12:45 51°14.991 2°54.349 4.3 281 2.6 102010 93
2009-02-13 12:46 51°14.822 2°54.326 5.9 286 2.5 102000 93
2009-02-13 12:47 51°14.668 2°54.478 4.1 286 2.5 102000 93
2009-02-13 12:48 51°14.527 2°54.7 4.1 284 2.5 102000 94
2009-02-13 12:49 51°14.41 2°54.96 4 285 2.5 102000 94
2009-02-13 12:50 51°14.288 2°55.218 4.2 279 2.5 102000 94
2009-02-13 12:51 51°14.145 2°55.391 3.2 284 2.5 102000 94
2009-02-13 12:52 51°14.01 2°55.492 2.9 280 2.5 102000 94
2009-02-13 12:53 51°13.895 2°55.581 1.1 280 2.5 102000 94
2009-02-13 12:54 51°13.793 2°55.667 2.3 279 2.6 101990 94
2009-02-13 12:55 51°13.712 2°55.788 1.5 278 2.6 101990 93
2009-02-13 12:56 51°13.676 2°55.905 0.7 283 2.6 101990 94
2009-02-13 12:57 51°13.663 2°55.956 2 75 2.7 101990 94
2009-02-13 12:58 51°13.661 2°55.959 0.9 79 2.8 101990 94
2009-02-13 12:59 51°13.663 2°55.96 1.7 78 2.9 101990 94